Location: Foulognes
(49.1413°N, 0.8183°W)
Time: 08:11:39
(UTC+00:00)

Envisat - Pass Details

Date: 21 October 2019
Orbit: 764 x 766 km, 98.1° (Epoch: 20 November)

Event Time Altitude Azimuth Distance (km) Brightness Sun altitude
Rises 18:32:47 0° 183° (S) 3,221 6.3 -15.5°
Reaches altitude 10° 18:35:10 10° 189° (S) 2,299 5.6 -15.9°
Maximum altitude 18:40:01 45° 262° (W) 1,044 4.2 -16.6°
Drops below altitude 10° 18:44:54 10° 335° (NNW) 2,315 5.9 -17.4°
Sets 18:47:20 0° 342° (NNW) 3,246 6.6 -17.8°
